Tracking 29493 objects as of 8-Sep-2024
HD Live streaming from Space Station
objects crossing your sky now

FENGYUN 1C DEB

Track FENGYUN 1C DEB now!
10-day predictions


NORAD ID: 32114
Int'l Code: 1999-025CRG
Perigee: 659.1 km
Apogee: 742.3 km
Inclination: 100.0 °
Period: 98.6 minutes
Semi major axis: 7071 km
RCS: 0.0153 m2 (small)
Launch date: May 10, 1999
Source: People's Republic of China (PRC)
Launch site: Taiyaun Space Center, China (TSC)

Note: This is SATELLITE DEBRIS
Your satellite tracking list
Your tracking list is empty




NASA's NSSDC Master Catalog

Two Line Element Set (TLE):
1 32114U 99025CRG 24244.30040867  .00063367  00000-0  12819-1 0  9997
2 32114  99.9636 255.4259 0058823 312.0023  47.6170 14.59876980588546
Source of the keplerian elements: AFSPC